RH
1 1 1 1 2 1 1 1 1 1 1 1 2 2 2 3 4 4 6 16 31 64 83 100 100 100 100 100 100 100 100 95 100 100 100 100 91 76 75 51 81 100 74 48 34 47 55 68 65 78 92 97 85 85
2 1 1 1 1 1 1 1 1 1 1 1 2 2 3 3 4 4 5 13 28 40 52 85 100 100 100 100 100 100 99 87 100 100 100 100 97 58 68 53 86 95 68 47 34 42 47 68 97 94 87 79 87 97
1 1 1 1 1 1 1 1 1 1 1 1 2 2 3 3 4 5 7 15 24 32 33 40 88 100 96 92 100 100 81 97 100 100 100 93 82 79 56 94 90 100 76 54 46 42 47 52 78 92 95 94 92 90
1 1 1 1 1 1 1 1 1 1 1 2 2 3 3 4 5 7 9 13 20 28 36 38 47 69 62 53 70 65 68 86 100 80 99 92 88 76 66 98 100 98 89 63 56 51 51 51 58 75 86 96 94 93
1 1 1 1 1 1 1 1 1 1 2 2 3 4 4 4 6 9 11 14 19 21 25 31 36 40 43 47 51 50 55 61 74 62 74 84 73 74 75 99 97 100 93 79 76 76 66 64 60 61 68 79 94 100
1 1 1 1 1 1 1 1 1 2 2 2 3 3 4 6 8 10 13 18 19 21 34 43 46 45 42 53 84 96 84 65 72 82 97 73 81 100 93 100 100 94 86 94 84 82 81 78 67 65 65 73 89 88
2 2 1 1 1 1 1 2 2 2 2 3 3 4 6 9 12 16 21 30 48 76 100 100 76 100 83 100 100 100 100 100 100 100 94 100 100 100 100 100 100 100 98 90 96 91 89 88 85 82 81 79 77 73
3 2 2 2 2 2 2 2 2 3 3 4 6 8 11 16 22 28 32 35 60 89 100 100 99 88 99 93 100 100 92 100 100 100 100 100 100 100 100 100 100 100 100 100 96 97 93 86 84 84 88 90 88 86
4 3 3 2 2 3 3 3 4 4 5 7 11 16 21 31 47 52 61 72 99 99 100 98 100 100 69 83 92 64 89 100 100 100 100 100 100 88 100 100 100 99 100 94 89 92 98 99 95 89 87 87 86 80
6 4 4 5 5 4 4 4 6 7 9 12 20 35 47 98 100 100 100 100 100 100 96 75 100 100 100 100 100 100 85 72 90 100 100 100 100 90 100 100 100 100 100 100 92 86 87 91 88 86 91 89 85 88
10 8 9 10 8 6 6 8 8 7 9 18 35 93 100 100 96 100 100 100 100 100 100 100 100 100 100 96 100 100 100 100 99 100 100 100 100 100 100 100 100 98 96 90 90 84 84 85 88 95 90 82 85 88
19 18 16 19 21 12 11 10 16 14 27 34 85 87 93 100 100 85 84 97 100 100 91 87 83 73 93 100 100 100 100 100 100 100 100 100 100 100 100 100 98 93 89 88 86 87 90 98 100 99 88 86 89 96
26 27 28 27 22 24 18 15 16 19 19 62 73 60 37 38 40 65 79 100 100 90 91 77 100 100 99 97 86 85 90 93 86 87 98 100 100 100 92 90 90 86 87 84 79 78 75 76 78 80 86 95 97 97
29 30 34 53 48 38 40 32 24 20 19 18 22 16 17 24 37 48 72 76 80 84 99 99 100 100 100 100 100 93 78 88 88 91 94 93 92 91 96 100 89 83 81 80 87 90 85 82 79 80 85 91 93 90
74 48 36 38 55 83 70 46 44 44 41 42 40 42 38 39 56 68 75 66 61 76 97 100 100 100 100 98 88 82 70 75 73 74 76 86 98 98 92 89 88 88 90 89 85 82 84 91 95 95 94 93 90 88
100 100 89 64 44 47 66 91 90 90 85 82 64 92 71 70 88 84 100 82 77 91 95 100 100 100 100 94 75 75 73 74 80 82 82 87 92 87 85 90 89 80 80 91 99 99 100 99 99 98 92 83 77 78
82 84 84 88 89 96 82 53 49 51 58 56 52 88 100 92 67 54 98 96 100 100 100 100 100 100 100 79 86 86 71 76 86 89 90 92 95 96 98 100 100 100 100 100 100 99 96 93 89 82 81 85 92 88
86 85 81 74 77 85 93 100 100 100 93 82 76 72 60 50 49 54 55 53 56 68 66 60 57 57 52 50 64 77 80 82 85 86 86 86 87 91 98 100 100 98 100 100 99 96 91 87 84 86 82 76 72 70
96 96 97 95 89 83 78 82 85 86 94 100 100 100 100 100 95 90 81 79 78 78 81 83 81 79 82 89 92 90 86 83 82 81 85 90 91 95 99 94 88 88 85 80 80 83 81 73 66 66 64 60 60 59
100 100 100 100 100 94 83 80 91 98 99 91 78 74 76 79 85 95 100 100 100 100 100 100 100 100 100 94 88 82 75 68 68 70 72 75 79 79 75 71 70 67 64 63 64 64 63 60 58 56 52 49 46 41
97 99 100 100 96 100 100 94 83 79 79 80 89 97 100 99 95 90 83 78 77 78 80 78 76 73 70 71 74 77 82 85 89 87 86 82 75 70 65 63 62 61 59 56 52 47 43 38 36 34 29 25 24 22
77 76 76 78 80 86 90 94 90 88 84 83 80 75 73 76 81 83 82 81 82 82 82 79 75 72 74 76 73 71 71 70 68 65 64 63 63 61 60 57 54 48 44 40 35 30 26 23 22 21 20 19 18 17
72 72 66 66 66 67 76 76 75 76 80 76 75 72 70 69 69 66 67 66 65 62 61 62 66 70 72 71 71 70 69 69 67 60 54 49 46 43 40 37 33 29 26 24 23 23 23 22 20 18 16 13 10 9
67 70 72 72 68 64 61 63 63 64 67 67 64 60 60 58 51 50 47 46 45 44 44 44 46 47 48 47 46 48 49 48 45 42 40 40 38 34 30 26 24 23 23 23 23 21 19 16 12 10 8 8 7 6
65 63 65 59 62 58 54 55 52 48 46 48 46 40 38 34 33 33 33 35 35 36 37 38 40 42 43 41 39 38 37 37 37 36 32 30 27 23 21 19 19 18 18 16 13 10 8 7 6 6 5 4 4 3
41 43 41 40 42 42 42 42 44 43 38 33 29 27 27 26 27 29 32 35 38 38 37 38 37 33 29 25 23 21 19 18 17 14 12 11 11 12 12 11 10 8 7 6 6 5 5 4 4 4 3 2 2 2
30 32 36 34 30 28 26 28 26 25 22 18 13 14 13 16 19 20 24 26 27 26 23 18 15 13 12 10 9 8 8 8 7 7 8 7 7 6 5 5 4 4 4 4 3 3 3 2 2 2 2 2 2 3
12 13 12 11 12 11 10 11 10 10 9 8 8 7 8 8 8 8 8 8 7 7 7 6 6 5 5 5 5 5 5 5 5 4 4 4 4 4 4 3 3 3 2 2 2 2 2 2 2 3 2 2 2 2
9 8 8 7 7 7 7 7 6 6 5 6 6 6 6 5 5 5 5 5 5 4 4 5 4 4 4 4 4 4 4 4 4 4 3 3 3 2 2 2 2 2 2 2 2 2 2 2 2 2 1 1 1 1
7 7 7 7 6 6 5 5 4 5 5 5 5 5 4 4 4 4 4 4 4 4 4 4 4 4 3 3 3 3 3 3 2 2 2 2 2 2 2 2 2 2 2 2 1 1 1 1 1 2 2 2 2 1
6 6 6 6 5 4 4 5 5 4 4 4 4 4 4 4 4 4 4 4 3 3 3 3 3 3 2 2 2 2 2 2 2 2 2 2 2 2 2 2 2 1 1 2 2 2 1 1 1 1 1 1 1 1
5 5 5 5 5 5 4 4 4 3 4 4 4 3 3 3 3 2 2 2 2 2 2 2 2 2 2 2 2 2 2 2 2 2 2 2 1 1 2 2 2 2 1 1 1 1 1 1 1 1 1 1 1 1
5 5 5 5 4 3 3 3 3 3 3 2 2 2 2 2 2 2 2 2 2 2 2 2 2 2 2 2 2 2 2 2 2 2 1 1 1 1 1 1 1 1 1 1 1 1 1 1 1 1 1 1 1 1
Wind_Speed
17 22 27 33 39 42 44 46 47 49 50 53 57 62 64 65 70 70 71 76 84 90 91 89 88 86 84 81 72 66 64 57 60 59 61 63 60 54 50 42 35 35 39 40 38 36 35 34 33 33 34 38 40 40
16 19 24 28 31 34 39 41 42 44 47 51 53 57 60 64 66 65 67 71 84 88 88 89 91 89 81 78 74 68 63 62 62 61 62 64 64 57 50 42 34 38 41 41 40 40 38 36 37 38 41 42 43 44
17 23 25 27 31 34 38 40 42 46 49 50 52 55 58 58 58 60 62 71 75 79 80 79 83 82 78 77 76 70 65 65 63 68 64 62 60 54 43 41 38 39 43 43 42 43 42 42 42 42 44 44 45 46
15 23 29 33 36 36 37 40 43 45 47 48 52 55 57 60 63 60 59 61 66 70 74 74 75 75 71 67 65 65 69 70 65 62 58 58 56 51 44 41 41 42 42 45 43 46 45 47 46 46 47 48 49 51
20 22 29 32 37 38 38 40 41 42 45 50 55 60 62 62 61 62 61 57 58 56 55 58 62 66 67 67 63 66 70 67 68 63 60 56 50 47 45 44 42 44 46 47 47 47 48 49 51 51 51 50 51 52
24 23 25 29 29 30 32 35 40 43 48 55 60 62 66 67 66 60 56 50 46 40 39 44 50 55 50 44 23 33 46 55 56 56 52 46 43 46 45 42 48 48 48 48 52 52 52 53 55 55 56 56 56 59
27 29 29 30 33 37 39 42 46 50 56 61 66 69 70 66 59 51 48 48 50 47 47 40 42 40 45 45 26 40 39 44 47 51 50 50 49 46 47 47 49 50 48 50 53 55 55 56 57 58 60 61 63 65
29 30 31 36 37 40 44 48 54 59 65 70 71 70 68 64 60 58 53 56 58 48 44 41 43 43 47 65 68 57 51 43 47 48 48 53 54 51 48 43 47 51 51 53 56 58 59 59 60 61 63 66 68 69
32 33 31 34 39 45 49 55 62 67 72 76 77 76 71 68 62 51 47 51 51 54 55 51 53 56 46 38 44 49 52 55 57 58 56 58 56 54 49 47 50 54 55 57 59 61 61 63 63 64 66 68 70 73
36 38 37 39 40 45 51 59 68 74 79 80 80 75 73 75 73 56 45 54 60 56 42 48 45 53 49 43 39 46 52 57 60 62 64 60 58 56 53 50 53 55 55 57 61 62 65 66 66 66 68 70 71 74
44 42 47 45 44 48 54 63 68 70 77 80 87 86 68 65 67 73 68 62 58 57 53 54 57 64 62 52 47 52 59 54 57 60 63 66 63 60 62 60 58 60 61 65 68 68 67 67 68 70 73 72 74 76
44 46 48 51 45 42 49 58 67 72 82 80 71 73 74 71 72 73 76 71 72 72 61 61 55 53 52 49 52 57 61 65 63 63 67 67 64 65 66 66 66 68 69 69 68 68 69 70 71 74 75 76 77 78
39 44 44 44 41 44 43 44 56 64 73 74 75 74 65 72 65 69 66 65 66 64 60 54 48 46 45 48 52 54 55 57 60 63 66 67 69 69 70 71 74 73 72 71 70 71 72 72 73 75 77 78 80 82
36 38 40 44 44 47 47 48 42 42 41 41 50 53 35 31 44 61 61 67 67 67 55 57 54 44 45 45 45 48 53 58 61 66 70 71 72 72 73 74 79 77 74 71 72 73 74 75 76 77 79 81 83 86
34 36 37 38 42 44 40 34 34 36 31 34 27 29 38 29 37 47 65 64 59 62 62 57 54 53 53 53 54 56 55 62 65 67 67 69 71 74 77 79 79 77 74 74 74 74 74 75 77 79 82 84 87 90
26 24 24 31 38 40 43 47 45 45 41 42 29 41 47 37 39 35 39 64 60 62 60 66 62 57 58 59 63 65 64 59 63 66 66 68 72 73 72 75 76 74 72 74 77 79 80 81 83 85 87 90 93 95
14 18 22 23 24 23 24 31 36 39 45 45 43 48 58 52 46 43 48 49 56 58 62 71 78 74 71 70 66 63 63 60 61 64 67 70 71 72 72 70 72 74 76 77 79 81 84 88 90 91 91 91 93 97
7 11 13 15 18 22 24 24 21 22 25 27 31 33 37 41 42 42 44 49 54 58 60 62 67 73 72 67 62 60 60 61 63 66 68 69 69 69 71 74 75 77 79 81 83 84 86 89 90 92 95 98 101 104
10 10 12 14 15 18 22 23 27 31 31 30 29 28 30 33 35 36 37 39 42 44 47 50 52 54 57 60 62 64 65 65 66 67 68 70 71 74 76 78 80 82 84 86 88 90 92 95 98 100 102 104 106 108
20 20 18 17 18 18 23 26 29 30 31 34 37 39 41 42 44 44 45 47 50 53 55 57 58 61 63 65 66 68 69 69 69 70 72 75 77 80 84 86 89 91 91 92 94 96 98 100 102 104 104 104 103 104
31 30 29 28 27 28 29 30 30 33 35 37 39 42 44 45 46 47 48 50 52 54 56 58 61 63 64 66 68 70 72 74 75 76 78 80 82 84 86 88 90 92 94 95 96 96 95 96 97 98 99 100 99 99
37 37 38 38 37 37 39 40 41 41 43 44 45 46 48 51 53 55 56 56 57 57 59 61 63 64 66 68 70 71 73 75 76 78 79 80 82 83 85 87 89 90 91 92 92 93 94 94 94 94 94 94 94 95
42 42 44 45 45 45 46 46 47 49 51 52 54 54 54 54 56 58 60 61 62 63 64 65 66 69 71 72 74 76 78 79 81 82 83 85 86 87 88 89 89 89 89 88 88 88 90 91 92 93 93 92 91 91
43 45 49 51 51 53 55 55 55 55 56 58 59 61 62 62 62 62 62 62 63 64 66 67 69 71 71 73 74 76 77 78 80 81 82 83 84 85 85 85 85 84 85 86 87 88 89 90 89 88 88 87 85 84
53 55 55 54 54 55 56 58 58 58 59 60 62 62 63 64 63 63 63 63 64 66 67 67 68 69 71 73 75 77 80 81 82 82 82 83 83 82 82 83 85 86 85 85 85 84 83 82 82 81 80 79 77 76
59 60 60 59 60 60 59 60 61 63 63 63 63 60 60 59 59 59 61 63 66 67 69 71 73 73 73 74 74 74 75 76 76 76 77 77 77 78 80 81 81 80 79 78 78 77 77 76 75 74 74 73 72 72
53 54 55 57 58 56 58 61 63 65 66 65 60 59 60 60 60 62 63 66 68 70 71 71 71 70 71 71 71 71 71 71 71 72 73 73 73 73 73 73 72 72 71 71 70 70 70 70 69 69 69 68 67 67
43 43 46 47 49 50 50 51 53 54 53 51 49 48 47 49 53 57 60 62 63 63 63 64 65 65 64 64 64 64 64 64 65 65 66 65 65 65 65 65 65 66 66 66 66 66 66 67 66 66 65 65 64 63
39 40 41 42 42 43 45 46 46 45 43 42 43 45 47 49 50 51 52 53 54 54 55 57 58 58 58 58 58 59 58 58 59 59 59 59 60 60 61 61 61 61 62 62 62 62 62 62 62 62 62 62 61 61
37 36 36 36 38 39 40 40 40 39 41 42 43 44 44 46 47 48 49 50 52 51 51 51 53 53 51 50 51 53 53 53 55 55 55 56 57 57 57 57 57 57 57 57 57 58 58 58 59 59 59 57 57 56
33 34 36 37 38 37 36 37 38 38 37 37 39 40 40 42 42 43 43 44 44 44 45 46 46 47 48 49 48 47 48 48 49 50 50 51 51 52 53 54 55 56 56 56 57 56 56 55 54 53 52 51 50 50
33 34 34 32 31 32 34 33 32 32 30 32 33 34 34 36 36 36 37 38 40 40 40 40 41 41 42 42 43 44 45 45 46 47 47 48 48 50 51 51 51 52 52 52 51 50 49 49 49 49 48 47 46 45
27 28 27 29 30 29 28 29 30 29 29 29 30 31 32 32 32 33 33 33 34 35 35 36 37 38 39 40 41 42 42 43 44 45 46 46 46 46 46 45 45 45 45 46 47 47 47 47 46 46 45 44 42 42
Wind_Direction
187 192 198 199 200 200 200 199 198 202 200 202 202 202 203 201 203 204 205 206 211 216 216 216 221 226 230 234 238 241 248 250 256 259 263 269 273 275 281 267 250 258 259 260 262 258 262 267 269 266 265 263 264 268
162 176 183 186 190 191 190 190 191 194 194 196 195 195 194 195 197 197 198 201 209 214 217 219 220 227 231 235 239 242 247 247 249 254 259 264 269 271 278 259 250 252 256 259 261 257 260 263 262 262 263 266 270 272
152 156 161 166 168 174 176 178 181 184 188 189 187 186 186 187 186 189 191 198 203 210 215 216 219 224 231 235 239 242 247 248 251 256 261 263 266 269 270 249 251 254 254 257 261 259 257 258 260 262 266 269 271 273
133 147 149 153 158 163 167 172 177 181 182 179 178 176 173 174 179 181 186 193 201 209 214 218 222 226 230 235 238 241 242 245 246 250 253 257 261 265 254 249 251 254 255 255 257 259 258 258 259 262 265 268 271 274
115 133 143 152 156 160 166 171 174 173 169 168 167 166 166 169 169 173 181 188 197 202 207 212 217 223 228 233 239 244 247 246 246 249 250 254 255 253 252 251 252 251 255 256 256 258 259 260 260 262 265 268 271 275
107 124 137 145 152 155 157 160 159 159 158 159 160 162 163 164 165 167 170 177 180 177 193 210 216 221 222 218 210 234 237 237 240 241 243 245 241 246 253 257 256 257 257 258 260 262 263 263 262 264 266 266 267 270
103 114 123 131 137 142 143 148 151 152 154 156 157 157 159 157 156 159 163 170 169 170 170 180 177 176 177 157 156 222 225 222 226 234 236 233 238 243 251 254 254 255 259 259 261 264 265 267 269 269 270 271 273 275
98 109 120 128 133 137 143 149 150 151 152 152 151 149 147 149 155 162 167 171 170 169 172 187 188 188 184 181 190 207 209 209 226 233 232 230 237 239 244 247 252 255 256 258 261 263 265 268 270 272 273 275 277 280
95 106 116 125 134 139 145 146 147 147 148 146 145 145 146 146 148 150 159 166 169 183 187 177 194 201 200 201 211 210 201 214 221 225 230 234 237 238 240 245 251 256 259 260 261 263 267 269 272 275 277 279 281 283
97 105 107 118 127 136 142 144 145 148 149 146 142 137 141 148 139 147 163 181 184 189 189 200 189 203 209 210 218 224 220 220 219 224 231 236 241 241 241 247 251 254 258 262 265 265 265 267 271 276 279 280 283 285
95 100 105 105 122 137 145 146 150 155 155 151 149 139 143 153 153 160 170 179 195 199 203 197 200 205 214 222 218 217 223 228 230 228 234 237 240 246 245 248 254 256 258 262 264 267 270 272 274 275 278 282 284 285
104 106 114 123 125 132 144 150 153 158 156 151 145 156 159 169 172 177 181 183 192 199 206 203 209 211 216 222 223 222 221 227 234 235 238 241 246 248 249 252 255 258 261 265 269 272 273 274 275 276 279 281 284 286
113 118 122 126 131 139 147 155 161 167 165 157 164 170 174 178 182 184 185 188 197 198 199 200 204 212 218 225 228 231 233 234 238 239 239 242 245 248 252 255 259 263 266 269 273 274 274 275 277 279 280 282 283 285
118 123 129 139 145 148 152 158 163 168 174 179 181 183 209 181 202 196 198 196 202 198 193 201 208 220 233 241 245 248 246 242 243 243 242 244 246 249 252 255 261 267 272 274 274 275 277 278 278 279 281 282 282 284
107 120 135 144 153 163 166 166 170 175 184 185 192 197 187 203 200 209 207 203 210 206 203 212 226 236 246 253 255 256 252 245 245 244 245 247 250 254 257 261 265 270 272 273 275 278 280 281 281 281 281 283 285 286
118 116 122 136 149 162 172 179 186 190 195 196 213 212 206 216 214 224 224 218 221 224 221 215 227 237 246 253 259 257 254 253 249 249 251 252 255 259 264 268 270 272 273 274 275 276 278 280 281 282 283 284 286 289
136 145 148 149 147 148 160 171 178 185 194 204 207 206 214 225 227 225 222 224 227 226 229 231 227 235 243 250 251 252 253 255 256 257 257 259 261 264 268 269 271 272 274 275 276 276 278 280 281 283 285 288 289 289
164 165 175 176 173 170 171 173 182 200 205 204 206 210 214 218 220 219 219 222 226 229 232 236 239 242 246 251 253 256 257 258 257 258 259 260 261 262 265 269 270 271 272 273 274 276 277 279 282 284 285 286 288 289
219 206 194 197 201 201 200 199 199 197 199 203 214 224 231 237 239 238 239 240 241 242 243 245 248 251 253 254 255 256 258 259 260 261 262 262 262 264 266 267 269 271 273 275 276 278 280 281 283 284 286 288 290 292
228 232 230 229 230 233 223 210 208 214 221 226 224 223 223 223 223 225 228 231 235 237 239 241 242 244 246 249 252 255 258 261 263 264 264 264 265 267 269 272 274 276 278 278 279 280 281 283 285 287 289 289 291 292
231 233 233 235 236 240 245 242 239 234 232 229 226 228 233 237 239 240 240 241 241 243 246 249 252 255 257 259 261 264 265 267 268 268 268 268 269 270 272 274 276 277 279 280 282 283 285 286 287 288 290 290 291 293
239 238 237 237 239 240 241 245 247 252 249 244 242 242 241 239 239 240 241 244 246 248 250 253 255 256 258 260 262 263 265 267 268 270 271 273 275 276 277 278 280 281 283 283 285 286 287 288 289 290 292 293 294 295
247 247 246 248 247 244 245 250 253 251 251 252 252 251 250 249 250 251 253 255 257 258 258 258 258 260 261 263 265 266 268 269 271 273 274 276 277 279 281 282 283 284 285 286 287 288 290 291 292 293 293 295 296 297
248 248 249 251 254 255 254 253 255 255 254 253 253 253 254 256 257 259 259 261 262 263 265 266 267 267 269 270 270 270 271 272 273 276 278 280 280 281 282 282 283 284 285 287 288 289 290 291 293 294 295 296 297 298
251 252 252 255 256 256 257 259 261 261 261 260 259 258 259 260 263 266 268 269 271 271 272 273 274 274 275 274 274 274 274 274 276 277 278 279 279 280 281 283 284 285 287 287 288 289 291 293 294 294 295 296 297 298
260 261 262 266 267 267 267 267 267 267 268 268 268 269 269 269 271 274 274 275 276 277 277 277 277 277 277 276 275 274 275 276 277 278 280 282 284 285 286 286 286 286 287 289 290 291 292 294 295 296 296 297 298 299
267 267 268 268 265 266 266 265 266 266 267 269 271 273 274 276 275 274 273 272 272 272 272 272 272 273 274 276 278 280 282 283 284 284 284 285 285 286 287 287 288 288 289 290 292 292 293 295 296 297 298 299 299 300
264 266 266 265 265 264 265 266 268 271 273 274 275 275 275 272 269 267 266 267 269 271 273 276 278 279 280 280 281 281 283 284 284 285 286 286 286 287 288 289 290 291 292 294 295 296 297 297 297 298 299 299 300 300
268 269 270 271 271 271 270 271 271 272 275 275 273 271 269 269 270 272 273 274 275 276 277 277 278 280 281 282 283 283 284 285 287 288 289 290 290 291 292 293 294 294 295 295 295 296 296 297 298 299 300 301 301 301
269 272 274 274 274 272 271 272 274 274 271 270 271 272 273 273 273 274 275 275 277 279 280 280 281 283 283 283 285 287 288 289 289 290 291 291 293 294 295 295 296 296 297 297 298 299 299 300 301 300 300 301 302 302
273 273 273 273 274 276 276 274 272 272 273 272 271 273 274 274 274 275 276 277 278 279 280 282 283 285 286 288 289 289 289 290 291 292 293 294 296 297 297 298 299 300 300 301 301 301 301 301 301 302 302 302 301 301
272 275 277 277 277 275 273 275 277 277 275 277 278 276 274 274 277 278 279 280 282 283 283 284 285 287 289 291 292 292 294 295 296 297 297 297 298 298 298 298 298 299 301 301 302 302 303 303 303 303 303 304 303 304
278 277 279 277 276 278 281 282 281 282 283 281 279 278 279 282 284 285 286 286 287 289 291 292 292 291 293 294 295 295 296 297 298 299 299 300 301 301 301 301 302 303 304 304 305 305 306 306 307 307 308 308 309 309